Content
SEND FEEDBACK

Daily
Averages
Monthly
Summary
Italy

PORDENONE, ITALY


Home > Europe > Italy
Elevation: 420 feet     Latitude: 46 00N     Longitude: 012 36E

WEATHER
 
SELECT A DAY
Number of Records: 105,652;   Date Range: 9/12/98 - 7/11/14
 
SHARE

PRINT THIS DATA

[ ← Previous Day ]
WEATHER ALMANAC - JANUARY 8, 2014
[ Next Day → ]
[ °C ]   °F
Weather ElementAverageHighLow
Temperature44.7 °F48.2 °F (1:46 pm)37.4 °F (9:18 pm)
Dewpoint44.6 °F48.2 °F (1:46 pm)37.4 °F (9:16 pm)
Humidity99.7 %100 % (12:29 am)93 % (7:46 pm)
Barometer30.32 in30.37 in (9:58 am)30.28 in (5:08 am)
Wind Speed2.5 mph8.1 mph (8:02 pm)
Weather ElementAverage
Visibility1.7 mi
Wind DirectionESE (96.2 °)

Weather ElementTotal
Precipitation---
Heating Degree Days22.2 (Base 65)
Averaged from 134 records on January 8, 2014
WEATHER CONDITIONS BREAKOUT
WIND DIRECTION BREAKOUT
WEATHER BY HOUR - JANUARY 8, 2014
[ °C ]   °F
Local TimeTemperatureDewpointHumidityBarometerVisibilityWind DirectionWind SpeedGust SpeedPrecipitationEventsConditions
12:29 AM46.4 °F46.4 °F100 %30.29 in0.2 miCalmFogFog
12:32 AM46.4 °F46.4 °F100 %30.29 inCalmFogFog
12:37 AM46.4 °F46.4 °F100 %30.29 in0.2 miCalmFogFog
12:58 AM45.5 °F45.5 °F100 %30.31 in0.2 miNorth (350°)1.2 mphFogFog
1:11 AM46.4 °F46.4 °F100 %30.29 inNW (320°)2.3 mphFogFog
1:58 AM45.7 °F45.7 °F100 %30.30 inCalmFogFog
2:58 AM45.9 °F45.9 °F100 %30.31 inCalmFogFog
3:58 AM45.9 °F45.9 °F100 %30.31 inSSW (200°)1.2 mphFogFog
4:58 AM45.3 °F45.3 °F100 %30.30 inSW (220°)3.5 mphFogFog
4:59 AM44.6 °F44.6 °F100 %30.29 in0.2 miSW (230°)3.5 mphFogFog
5:03 AM44.6 °F44.6 °F100 %30.29 in0.2 miSW (230°)3.5 mphFogFog
5:04 AM44.6 °F44.6 °F100 %30.29 in0.5 miSW (230°)3.5 mphFogFog
5:08 AM44.6 °F44.6 °F100 %30.28 in0.7 miSouth (170°)3.5 mphMist
5:10 AM44.6 °F44.6 °F100 %30.28 in1.0 miSSE (150°)3.5 mphMist
5:11 AM44.6 °F44.6 °F100 %30.28 in1.5 miSSE (150°)2.3 mphScattered Clouds
5:17 AM44.6 °F44.6 °F100 %30.28 in1.2 miSSE (160°)2.3 mphPartly Cloudy
5:19 AM44.6 °F44.6 °F100 %30.28 in1.0 miSouth (190°)3.5 mphMist
5:22 AM44.6 °F44.6 °F100 %30.28 in0.7 miSouth (190°)3.5 mphMist
5:24 AM44.6 °F44.6 °F100 %30.28 in0.7 miSouth (190°)3.5 mphMist
5:28 AM44.6 °F44.6 °F100 %30.28 in0.7 miSouth (190°)3.5 mphMist
5:29 AM44.6 °F44.6 °F100 %30.28 in1.0 miSSW (200°)2.3 mphMist
5:32 AM44.6 °F44.6 °F100 %30.28 in1.0 miSW (220°)1.2 mphMist
5:35 AM44.6 °F44.6 °F100 %30.29 in1.2 miSW (220°)2.3 mphPartly Cloudy
5:37 AM44.6 °F44.6 °F100 %30.29 in1.5 miSW (220°)1.2 mphPartly Cloudy
5:50 AM44.6 °F44.6 °F100 %30.29 in1.5 miWSW (250°)2.3 mphMostly Cloudy
5:53 AM44.6 °F44.6 °F100 %30.29 in1.7 miWest (260°)1.2 mphMostly Cloudy
5:55 AM44.6 °F44.6 °F100 %30.29 inCalmMostly Cloudy
5:58 AM44.8 °F44.8 °F100 %30.31 inCalmMostly Cloudy
6:05 AM44.6 °F44.6 °F100 %30.29 in1.7 miCalmOvercast
6:20 AM44.6 °F44.6 °F100 %30.29 in1.5 miCalmMostly Cloudy
6:21 AM44.6 °F44.6 °F100 %30.29 in1.2 miCalmMostly Cloudy
6:22 AM44.6 °F44.6 °F100 %30.29 in1.0 miCalmMist
6:23 AM44.6 °F44.6 °F100 %30.29 in0.7 miCalmMist
6:25 AM44.6 °F44.6 °F100 %30.29 in0.5 miCalmFogFog
6:28 AM44.6 °F44.6 °F100 %30.30 in0.2 miCalmFogFog
6:34 AM44.6 °F44.6 °F100 %30.30 inWest (270°)1.2 mphFogFog
6:42 AM44.6 °F44.6 °F100 %30.30 inWNW (290°)1.2 mphFogFog
6:58 AM44.8 °F44.8 °F100 %30.32 inCalmFogFog
7:58 AM44.8 °F44.8 °F100 %30.34 inCalmFogFog
8:58 AM45.1 °F45.1 °F100 %30.36 inNNW (330°)2.3 mphFogFog
9:58 AM45.5 °F45.5 °F100 %30.37 inNW (320°)1.2 mphFogFog
10:08 AM46.4 °F46.4 °F100 %30.35 in0.2 miCalmFogFog
10:19 AM46.4 °F46.4 °F100 %30.35 in0.2 miCalmFogFog
10:20 AM46.4 °F46.4 °F100 %30.35 in0.5 miCalmFogFog
10:22 AM46.4 °F46.4 °F100 %30.35 in0.5 miCalmFogFog
10:27 AM46.4 °F46.4 °F100 %30.35 in0.7 miCalmMist
10:32 AM46.4 °F46.4 °F100 %30.35 in1.0 miCalmMist
10:33 AM46.4 °F46.4 °F100 %30.35 in1.0 miCalmMist
10:37 AM46.4 °F46.4 °F100 %30.35 in1.0 miCalmMist
10:38 AM46.4 °F46.4 °F100 %30.35 in1.0 miCalmMist
10:39 AM46.4 °F46.4 °F100 %30.35 in1.0 miCalmMist
10:44 AM46.4 °F46.4 °F100 %30.35 in1.2 miCalmMostly Cloudy
10:50 AM46.4 °F46.4 °F100 %30.35 in1.0 miEast (100°)1.2 mphMist
10:53 AM46.4 °F46.4 °F100 %30.35 in0.7 miEast (100°)1.2 mphMist
10:54 AM46.4 °F46.4 °F100 %30.35 in0.7 miEast (90°)1.2 mphMist
10:57 AM46.4 °F46.4 °F100 %30.35 in0.5 miSE (140°)2.3 mphFogFog
10:58 AM46.4 °F46.4 °F100 %30.37 in0.5 miSE (140°)2.3 mphFogFog
11:00 AM46.4 °F46.4 °F100 %30.35 in0.5 miSE (130°)2.3 mphFogFog
11:02 AM46.4 °F46.4 °F100 %30.35 in0.2 miENE (70°)1.2 mphFogFog
11:03 AM46.4 °F46.4 °F100 %30.35 in0.2 miCalmFogFog
11:09 AM46.4 °F46.4 °F100 %30.35 in0.2 miCalmFogFog
11:12 AM46.4 °F46.4 °F100 %30.35 in0.2 miCalmFogFog
11:13 AM46.4 °F46.4 °F100 %30.35 in0.5 miCalmFogFog
11:15 AM46.4 °F46.4 °F100 %30.35 in0.5 miSE (130°)1.2 mphFogFog
11:23 AM46.4 °F46.4 °F100 %30.35 in0.2 miESE (120°)3.5 mphFogFog
11:24 AM46.4 °F46.4 °F100 %30.35 inSE (130°)2.3 mphFogFog
11:25 AM46.4 °F46.4 °F100 %30.35 inSE (130°)2.3 mphFogFog
11:38 AM46.4 °F46.4 °F100 %30.34 inESE (120°)2.3 mphFogFog
11:48 AM46.4 °F46.4 °F100 %30.34 inEast (100°)2.3 mphFogFog
11:52 AM46.4 °F46.4 °F100 %30.34 in0.2 miEast (90°)3.5 mphFogFog
11:54 AM46.4 °F46.4 °F100 %30.34 in0.2 miEast (90°)3.5 mphFogFog
11:55 AM46.4 °F46.4 °F100 %30.34 in0.5 miEast (90°)4.6 mphFogFog
11:58 AM46.2 °F46.2 °F100 %30.36 in0.5 miEast (90°)3.5 mphFogFog
12:01 PM46.4 °F46.4 °F100 %30.34 in0.7 miEast (80°)3.5 mphFogFog
12:07 PM46.4 °F46.4 °F100 %30.34 in1.0 miENE (60°)2.3 mphMist
12:10 PM46.4 °F46.4 °F100 %30.34 in1.0 miENE (70°)3.5 mphMist
12:11 PM46.4 °F46.4 °F100 %30.34 in1.2 miEast (80°)3.5 mphMostly Cloudy
12:16 PM46.4 °F46.4 °F100 %30.33 in1.0 miENE (70°)2.3 mphMist
12:18 PM46.4 °F46.4 °F100 %30.33 in0.7 miEast (80°)3.5 mphMist
12:25 PM46.4 °F46.4 °F100 %30.33 in1.0 miENE (70°)2.3 mphMist
12:28 PM46.4 °F46.4 °F100 %30.33 in1.2 miENE (60°)3.5 mphMostly Cloudy
12:32 PM46.4 °F46.4 °F100 %30.33 in1.2 miENE (60°)3.5 mphMostly Cloudy
12:34 PM46.4 °F46.4 °F100 %30.33 in1.5 miENE (60°)2.3 mphMostly Cloudy
12:45 PM46.4 °F46.4 °F100 %30.33 inNE (50°)3.5 mphMostly Cloudy
12:55 PM46.4 °F46.4 °F100 %30.33 in1.7 miNE (50°)3.5 mphOvercast
12:58 PM46.8 °F46.8 °F100 %30.35 in1.5 miNE (40°)3.5 mphOvercast
1:00 PM46.4 °F46.4 °F100 %30.33 in1.2 miNE (50°)3.5 mphOvercast
1:06 PM46.4 °F46.4 °F100 %30.33 in1.5 miNNE (30°)3.5 mphOvercast
1:11 PM46.4 °F46.4 °F100 %30.33 inNNE (30°)3.5 mphMostly Cloudy
1:15 PM46.4 °F46.4 °F100 %30.33 in2.5 miNE (40°)4.6 mphMostly Cloudy
1:43 PM46.4 °F46.4 °F100 %30.32 in3.1 miENE (60°)5.8 mphMostly Cloudy
1:46 PM48.2 °F48.2 °F100 %30.32 in2.5 miENE (60°)5.8 mphMostly Cloudy
1:48 PM46.4 °F46.4 °F100 %30.32 in3.1 miENE (60°)5.8 mphMostly Cloudy
1:58 PM47.1 °F47.1 °F100 %30.34 in3.1 miENE (70°)5.8 mphMostly Cloudy
2:06 PM46.4 °F46.4 °F100 %30.32 in3.1 miENE (60°)5.8 mphScattered Clouds
2:17 PM48.2 °F48.2 °F100 %30.32 in2.5 miENE (70°)5.8 mphScattered Clouds
2:42 PM48.2 °F48.2 °F100 %30.32 in3.1 miNNE (30°)4.6 mphPartly Cloudy
2:58 PM47.7 °F47.7 °F100 %30.34 in3.7 miNE (50°)5.8 mphClear
3:00 PM48.2 °F48.2 °F100 %30.32 in3.7 miNE (50°)4.6 mphPartly Cloudy
3:58 PM47.7 °F47.7 °F100 %30.34 in3.7 miNE (50°)3.5 mphClear
4:58 PM46.8 °F46.8 °F100 %30.33 in3.7 miENE (60°)3.5 mphClear
5:06 PM46.4 °F46.4 °F100 %30.31 in5.0 miNE (50°)2.3 mphPartly Cloudy
5:58 PM46.6 °F46.6 °F100 %30.33 in3.7 miNorth (350°)2.3 mphPartly Cloudy
6:58 PM45.5 °F45.5 °F100 %30.33 in3.7 miNorth (350°)2.3 mphPartly Cloudy
7:10 PM44.6 °F44.6 °F100 %30.31 in2.5 miNNE (30°)2.3 mphPartly Cloudy
7:25 PM44.6 °F44.6 °F100 %30.31 in3.1 miNE (50°)3.5 mphClear
7:42 PM42.8 °F42.8 °F100 %30.31 in2.5 miENE (60°)5.8 mphClear
7:43 PM42.8 °F42.8 °F100 %30.31 in1.7 miENE (60°)5.8 mphClear
7:46 PM42.8 °F41.0 °F93 %30.31 in1.2 miENE (60°)5.8 mphClear
7:53 PM41.0 °F41.0 °F100 %30.31 in1.5 miENE (60°)6.9 mphClear
7:55 PM41.0 °F41.0 °F100 %30.31 inENE (60°)6.9 mphClear
7:57 PM41.0 °F41.0 °F100 %30.31 in2.5 miENE (60°)6.9 mphClear
7:58 PM41.0 °F41.0 °F100 %30.34 in2.5 miENE (60°)6.9 mphClear
8:02 PM41.0 °F41.0 °F100 %30.31 in3.1 miENE (60°)8.1 mphClear
8:33 PM39.2 °F39.2 °F100 %30.32 in2.5 miNorth (10°)4.6 mphClear
8:36 PM41.0 °F39.2 °F93 %30.32 in3.1 miNorth (10°)4.6 mphClear
8:48 PM41.0 °F41.0 °F100 %30.32 in2.5 miNorth (10°)3.5 mphClear
8:58 PM41.0 °F40.6 °F99 %30.35 in2.5 miNorth (10°)2.3 mphClear
8:59 PM41.0 °F41.0 °F100 %30.32 in3.1 miNorth (10°)2.3 mphClear
9:03 PM41.0 °F41.0 °F100 %30.32 in2.5 miNorth (10°)2.3 mphClear
9:05 PM41.0 °F41.0 °F100 %30.32 inNNE (30°)2.3 mphClear
9:07 PM39.2 °F39.2 °F100 %30.32 in1.7 miNNE (30°)2.3 mphClear
9:14 PM39.2 °F39.2 °F100 %30.31 inNE (40°)2.3 mphClear
9:16 PM39.2 °F37.4 °F93 %30.32 in2.5 miNE (40°)2.3 mphClear
9:18 PM37.4 °F37.4 °F100 %30.32 in3.1 miNNE (20°)2.3 mphClear
9:33 PM39.2 °F39.2 °F100 %30.31 in2.5 miNNW (340°)2.3 mphClear
9:42 PM39.2 °F39.2 °F100 %30.31 in3.1 miNorth (350°)2.3 mphClear
9:58 PM40.1 °F39.9 °F99 %30.34 in3.7 miNNE (20°)2.3 mphClear
10:26 PM37.4 °F37.4 °F100 %30.30 in5.0 miNorth (10°)3.5 mphClear
10:31 PM37.4 °F37.4 °F100 %30.30 in5.0 miNorth (10°)3.5 mphClear
10:51 PM39.2 °F37.4 °F93 %30.30 in5.0 miNorth (360°)4.6 mphClear
10:52 PM39.2 °F37.4 °F93 %30.30 in5.0 miNorth (360°)4.6 mphClear
10:58 PM38.7 °F38.3 °F99 %30.32 in5.0 miNorth (360°)4.6 mphClear
11:58 PM40.3 °F40.1 °F99 %30.31 in6.2 miNNW (340°)2.3 mphScattered Clouds
Hourly data recorded from LIYW, located miles away from Pordenone, Italy







STORIES FROM OUR PARTNERS